Time,TemperatureF,DewpointF,PressureIn,WindDirection,WindDirectionDegrees,WindSpeedMPH,WindSpeedGustMPH,Humidity,HourlyPrecipIn,Conditions,Clouds,dailyrainin,SoftwareType,DateUTC
2013-08-23 00:03:00,70.6,67.5,30.08,NNE,27,0.0,0.0,90,0.00,,,0.00,Wunderground v.1.15,2013-08-23 05:03:00,
2013-08-23 00:13:00,70.8,67.7,30.08,NNE,27,0.0,0.0,90,0.00,,,0.00,Wunderground v.1.15,2013-08-23 05:13:00,
2013-08-23 00:23:00,70.9,67.8,30.08,NNE,27,0.0,0.0,90,0.00,,,0.00,Wunderground v.1.15,2013-08-23 05:23:00,
2013-08-23 00:33:00,71.1,68.0,30.08,NNE,27,0.0,0.0,90,0.00,,,0.00,Wunderground v.1.15,2013-08-23 05:33:00,
2013-08-23 00:43:00,70.9,67.8,30.08,NNE,27,0.0,0.0,90,0.00,,,0.00,Wunderground v.1.15,2013-08-23 05:43:00,
2013-08-23 00:53:00,70.8,67.7,30.08,NNE,27,0.0,0.0,90,0.00,,,0.00,Wunderground v.1.15,2013-08-23 05:53:00,
2013-08-23 01:03:00,70.4,67.3,30.09,NNE,27,0.0,0.0,90,0.00,,,0.00,Wunderground v.1.15,2013-08-23 06:03:00,
2013-08-23 01:13:00,70.1,67.0,30.08,NNE,27,0.0,0.0,90,0.00,,,0.00,Wunderground v.1.15,2013-08-23 06:13:00,
2013-08-23 01:23:00,69.9,66.8,30.08,NNE,27,0.0,0.0,90,0.00,,,0.00,Wunderground v.1.15,2013-08-23 06:23:00,
2013-08-23 01:33:00,69.6,66.5,30.08,NNE,27,0.0,0.0,90,0.00,,,0.00,Wunderground v.1.15,2013-08-23 06:33:00,
2013-08-23 01:43:00,69.6,66.9,30.08,NNE,27,0.0,0.0,91,0.00,,,0.00,Wunderground v.1.15,2013-08-23 06:43:00,
2013-08-23 01:53:00,69.6,66.9,30.08,NNE,27,0.0,0.0,91,0.00,,,0.00,Wunderground v.1.15,2013-08-23 06:53:00,
2013-08-23 02:03:00,69.6,66.9,30.08,NNE,27,0.0,0.0,91,0.00,,,0.00,Wunderground v.1.15,2013-08-23 07:03:00,
2013-08-23 02:13:00,69.6,66.9,30.08,NNE,27,0.0,0.0,91,0.00,,,0.00,Wunderground v.1.15,2013-08-23 07:13:00,
2013-08-23 02:23:00,69.8,67.1,30.08,NNE,27,0.0,0.0,91,0.00,,,0.00,Wunderground v.1.15,2013-08-23 07:23:00,
2013-08-23 02:33:00,69.6,66.9,30.07,NNE,27,0.0,0.0,91,0.00,,,0.00,Wunderground v.1.15,2013-08-23 07:33:00,
2013-08-23 02:43:00,69.4,66.7,30.08,NNE,27,0.0,0.0,91,0.00,,,0.00,Wunderground v.1.15,2013-08-23 07:43:00,
2013-08-23 02:53:00,69.1,66.4,30.08,NNE,27,0.0,0.0,91,0.00,,,0.00,Wunderground v.1.15,2013-08-23 07:53:00,
2013-08-23 03:03:00,68.3,65.6,30.08,NNE,27,0.0,0.0,91,0.00,,,0.00,Wunderground v.1.15,2013-08-23 08:03:00,
2013-08-23 03:13:00,67.6,64.9,30.08,NNE,27,0.0,0.0,91,0.00,,,0.00,Wunderground v.1.15,2013-08-23 08:13:00,
2013-08-23 03:23:00,67.6,64.9,30.08,NNE,27,0.0,0.0,91,0.00,,,0.00,Wunderground v.1.15,2013-08-23 08:23:00,
2013-08-23 03:33:00,67.2,64.5,30.08,NNE,27,0.0,0.0,91,0.00,,,0.00,Wunderground v.1.15,2013-08-23 08:33:00,
2013-08-23 03:43:00,67.2,64.5,30.08,NNE,27,0.0,0.0,91,0.00,,,0.00,Wunderground v.1.15,2013-08-23 08:43:00,
2013-08-23 03:53:00,67.0,64.3,30.09,NNE,27,0.0,0.0,91,0.00,,,0.00,Wunderground v.1.15,2013-08-23 08:53:00,
2013-08-23 04:03:00,66.5,63.8,30.09,NNE,27,0.0,0.0,91,0.00,,,0.00,Wunderground v.1.15,2013-08-23 09:03:00,
2013-08-23 04:13:00,66.0,63.3,30.09,NNE,27,0.0,0.0,91,0.00,,,0.00,Wunderground v.1.15,2013-08-23 09:13:00,
2013-08-23 04:23:00,66.0,63.3,30.09,NNE,27,0.0,0.0,91,0.00,,,0.00,Wunderground v.1.15,2013-08-23 09:23:00,
2013-08-23 04:33:00,65.7,63.0,30.09,NNE,27,0.0,0.0,91,0.00,,,0.00,Wunderground v.1.15,2013-08-23 09:33:00,
2013-08-23 04:43:00,65.2,62.5,30.09,NNE,27,0.0,0.0,91,0.00,,,0.00,Wunderground v.1.15,2013-08-23 09:43:00,
2013-08-23 04:53:00,64.7,62.0,30.09,NNE,27,0.0,0.0,91,0.00,,,0.00,Wunderground v.1.15,2013-08-23 09:53:00,
2013-08-23 05:03:00,64.6,61.9,30.09,NNE,27,0.0,0.0,91,0.00,,,0.00,Wunderground v.1.15,2013-08-23 10:03:00,
2013-08-23 05:13:00,64.6,61.9,30.09,NNE,27,0.0,0.0,91,0.00,,,0.00,Wunderground v.1.15,2013-08-23 10:13:00,
2013-08-23 05:23:00,64.4,61.7,30.10,NNE,27,0.0,0.0,91,0.00,,,0.00,Wunderground v.1.15,2013-08-23 10:23:00,
2013-08-23 05:33:00,64.4,61.7,30.10,NNE,27,0.0,0.0,91,0.00,,,0.00,Wunderground v.1.15,2013-08-23 10:33:00,
2013-08-23 05:43:00,64.3,61.6,30.10,NNE,27,0.0,0.0,91,0.00,,,0.00,Wunderground v.1.15,2013-08-23 10:43:00,
2013-08-23 05:53:00,64.3,61.6,30.10,NNE,27,0.0,0.0,91,0.00,,,0.00,Wunderground v.1.15,2013-08-23 10:53:00,
2013-08-23 06:03:00,64.6,61.9,30.10,NNE,27,0.0,0.0,91,0.00,,,0.00,Wunderground v.1.15,2013-08-23 11:03:00,
2013-08-23 06:13:00,65.2,62.5,30.11,NNE,27,0.0,0.0,91,0.00,,,0.00,Wunderground v.1.15,2013-08-23 11:13:00,
2013-08-23 06:23:00,66.3,63.6,30.11,NNE,27,0.0,0.0,91,0.00,,,0.00,Wunderground v.1.15,2013-08-23 11:23:00,
2013-08-23 06:33:00,66.5,63.8,30.11,NNE,27,0.0,0.0,91,0.00,,,0.00,Wunderground v.1.15,2013-08-23 11:33:00,
2013-08-23 06:43:00,66.5,63.8,30.12,NNE,27,0.0,0.0,91,0.00,,,0.00,Wunderground v.1.15,2013-08-23 11:43:00,
2013-08-23 06:53:00,66.7,64.0,30.12,NNE,27,0.0,0.0,91,0.00,,,0.00,Wunderground v.1.15,2013-08-23 11:53:00,
2013-08-23 07:03:00,66.8,64.1,30.12,NNE,27,0.0,0.0,91,0.00,,,0.00,Wunderground v.1.15,2013-08-23 12:03:00,
2013-08-23 07:13:00,66.8,64.1,30.12,NNE,27,0.0,0.0,91,0.00,,,0.00,Wunderground v.1.15,2013-08-23 12:13:00,
2013-08-23 07:23:00,67.2,64.5,30.12,NNE,27,0.0,0.0,91,0.00,,,0.00,Wunderground v.1.15,2013-08-23 12:23:00,
2013-08-23 07:33:00,67.5,64.8,30.12,NNE,27,0.0,0.0,91,0.00,,,0.00,Wunderground v.1.15,2013-08-23 12:33:00,
2013-08-23 07:43:00,68.1,65.4,30.12,NNE,27,0.0,0.0,91,0.00,,,0.00,Wunderground v.1.15,2013-08-23 12:43:00,
2013-08-23 07:53:00,68.8,66.1,30.13,NNE,27,0.0,0.0,91,0.00,,,0.00,Wunderground v.1.15,2013-08-23 12:53:00,
2013-08-23 08:03:00,69.4,66.7,30.13,NNE,27,0.0,0.0,91,0.00,,,0.00,Wunderground v.1.15,2013-08-23 13:03:00,
2013-08-23 08:13:00,70.1,67.3,30.12,NNE,27,0.0,0.0,91,0.00,,,0.00,Wunderground v.1.15,2013-08-23 13:13:00,
2013-08-23 08:23:00,70.9,68.1,30.13,NNE,27,0.0,0.0,91,0.00,,,0.00,Wunderground v.1.15,2013-08-23 13:23:00,
2013-08-23 08:33:00,71.6,68.8,30.13,NNE,27,0.0,0.0,91,0.00,,,0.00,Wunderground v.1.15,2013-08-23 13:33:00,
2013-08-23 08:43:00,71.9,69.1,30.13,NNE,27,0.0,0.0,91,0.00,,,0.00,Wunderground v.1.15,2013-08-23 13:43:00,
2013-08-23 08:53:00,72.3,69.5,30.13,North,9,0.0,0.0,91,0.00,,,0.00,Wunderground v.1.15,2013-08-23 13:53:00,
2013-08-23 09:03:00,72.6,69.8,30.13,NNE,22,0.0,0.0,91,0.00,,,0.00,Wunderground v.1.15,2013-08-23 14:03:00,
2013-08-23 09:13:00,73.1,70.3,30.13,NNE,22,0.0,0.0,91,0.00,,,0.00,Wunderground v.1.15,2013-08-23 14:13:00,
2013-08-23 09:23:00,73.5,70.7,30.13,NNE,22,0.0,0.0,91,0.00,,,0.00,Wunderground v.1.15,2013-08-23 14:23:00,
2013-08-23 09:33:00,73.8,71.0,30.13,NNE,22,0.0,0.0,91,0.00,,,0.00,Wunderground v.1.15,2013-08-23 14:33:00,
2013-08-23 09:43:00,74.5,71.4,30.13,NE,40,0.0,0.0,90,0.00,,,0.00,Wunderground v.1.15,2013-08-23 14:43:00,
2013-08-23 09:53:00,75.0,70.5,30.13,NE,51,0.0,0.0,86,0.00,,,0.00,Wunderground v.1.15,2013-08-23 14:53:00,
2013-08-23 10:03:00,75.5,68.9,30.14,SE,133,0.0,0.0,80,0.00,,,0.00,Wunderground v.1.15,2013-08-23 15:03:00,
2013-08-23 11:17:00,82.9,69.0,30.13,NE,46,0.0,0.0,63,0.00,,,0.00,Wunderground v.1.15,2013-08-23 16:17:00,
2013-08-23 11:23:00,83.1,68.7,30.13,NE,46,0.0,0.0,62,0.00,,,0.00,Wunderground v.1.15,2013-08-23 16:23:00,
2013-08-23 11:33:00,83.4,68.5,30.14,NE,46,0.0,0.0,61,0.00,,,0.00,Wunderground v.1.15,2013-08-23 16:33:00,
2013-08-23 11:43:00,84.2,68.3,30.13,NE,46,0.0,0.0,59,0.00,,,0.00,Wunderground v.1.15,2013-08-23 16:43:00,
2013-08-23 11:53:00,84.0,68.1,30.13,NE,46,0.0,0.0,59,0.00,,,0.00,Wunderground v.1.15,2013-08-23 16:53:00,
2013-08-23 12:02:00,84.2,68.8,30.13,NE,46,0.0,0.0,60,0.00,,,0.00,Wunderground v.1.15,2013-08-23 17:02:00,
2013-08-23 12:13:00,84.6,68.2,30.13,NE,46,0.0,0.0,58,0.00,,,0.00,Wunderground v.1.15,2013-08-23 17:13:00,
2013-08-23 12:22:00,85.0,67.5,30.12,ENE,71,0.0,0.0,56,0.00,,,0.00,Wunderground v.1.15,2013-08-23 17:22:00,
2013-08-23 12:32:00,84.8,68.4,30.12,ENE,71,0.0,0.0,58,0.00,,,0.00,Wunderground v.1.15,2013-08-23 17:32:00,
2013-08-23 12:43:00,85.0,67.0,30.12,ENE,71,0.0,0.0,55,0.00,,,0.00,Wunderground v.1.15,2013-08-23 17:43:00,
2013-08-23 12:52:00,85.2,68.2,30.11,ENE,71,0.0,0.0,57,0.00,,,0.00,Wunderground v.1.15,2013-08-23 17:52:00,
2013-08-23 13:02:00,85.4,68.4,30.11,ENE,76,0.0,0.0,57,0.00,,,0.00,Wunderground v.1.15,2013-08-23 18:02:00,
2013-08-23 13:12:00,86.0,68.5,30.11,ENE,76,0.0,0.0,56,0.00,,,0.00,Wunderground v.1.15,2013-08-23 18:12:00,
2013-08-23 13:22:00,86.3,66.0,30.11,East,90,0.0,0.0,51,0.00,,,0.00,Wunderground v.1.15,2013-08-23 18:22:00,
2013-08-23 13:32:00,86.3,67.2,30.11,East,90,0.0,0.0,53,0.00,,,0.00,Wunderground v.1.15,2013-08-23 18:32:00,
2013-08-23 13:42:00,86.1,67.0,30.11,East,90,0.0,0.0,53,0.00,,,0.00,Wunderground v.1.15,2013-08-23 18:42:00,
2013-08-23 13:52:00,86.3,66.6,30.11,East,94,0.0,0.0,52,0.00,,,0.00,Wunderground v.1.15,2013-08-23 18:52:00,
2013-08-23 14:03:00,86.7,64.1,30.11,East,94,0.0,0.0,47,0.00,,,0.00,Wunderground v.1.15,2013-08-23 19:03:00,
2013-08-23 14:12:00,86.9,66.6,30.11,East,94,0.0,0.0,51,0.00,,,0.00,Wunderground v.1.15,2013-08-23 19:12:00,
2013-08-23 14:23:00,87.3,65.8,30.11,NNE,25,0.0,0.0,49,0.00,,,0.00,Wunderground v.1.15,2013-08-23 19:23:00,
2013-08-23 14:33:00,87.5,65.4,30.10,NE,53,0.0,0.0,48,0.00,,,0.00,Wunderground v.1.15,2013-08-23 19:33:00,
2013-08-23 14:42:00,87.7,65.0,30.10,ENE,57,0.0,0.0,47,0.00,,,0.00,Wunderground v.1.15,2013-08-23 19:42:00,
2013-08-23 14:52:00,88.1,66.5,30.10,ENE,57,0.0,0.0,49,0.00,,,0.00,Wunderground v.1.15,2013-08-23 19:52:00,
2013-08-23 15:03:00,87.9,63.9,30.09,ENE,57,0.0,0.0,45,0.00,,,0.00,Wunderground v.1.15,2013-08-23 20:03:00,
2013-08-23 15:12:00,87.9,68.1,30.09,ENE,57,0.0,0.0,52,0.00,,,0.00,Wunderground v.1.15,2013-08-23 20:12:00,
2013-08-23 15:22:00,87.9,64.5,30.09,ENE,57,0.0,0.0,46,0.00,,,0.00,Wunderground v.1.15,2013-08-23 20:22:00,
2013-08-23 15:32:00,87.7,63.7,30.09,ENE,57,0.0,0.0,45,0.00,,,0.00,Wunderground v.1.15,2013-08-23 20:32:00,
2013-08-23 15:42:00,87.9,66.4,30.09,ENE,57,0.0,0.0,49,0.00,,,0.00,Wunderground v.1.15,2013-08-23 20:42:00,
2013-08-23 15:48:00,87.9,64.5,30.09,ENE,57,0.0,0.0,46,0.00,,,0.00,Wunderground v.1.15,2013-08-23 20:48:00,
2013-08-23 15:58:00,87.9,64.5,30.08,ENE,57,0.0,0.0,46,0.00,,,0.00,Wunderground v.1.15,2013-08-23 20:58:00,
2013-08-23 16:03:00,87.9,65.2,30.09,ENE,57,0.0,0.0,47,0.00,,,0.00,Wunderground v.1.15,2013-08-23 21:03:00,
2013-08-23 16:13:00,88.1,64.7,30.08,ENE,57,0.0,0.0,46,0.00,,,0.00,Wunderground v.1.15,2013-08-23 21:13:00,
2013-08-23 16:23:00,88.1,64.7,30.08,ENE,57,0.0,0.0,46,0.00,,,0.00,Wunderground v.1.15,2013-08-23 21:23:00,
2013-08-23 16:33:00,88.3,64.9,30.08,ENE,57,0.0,0.0,46,0.00,,,0.00,Wunderground v.1.15,2013-08-23 21:33:00,
2013-08-23 16:43:00,88.3,64.3,30.08,ENE,57,0.0,0.0,45,0.00,,,0.00,Wunderground v.1.15,2013-08-23 21:43:00,
2013-08-23 16:53:00,88.1,64.1,30.08,ENE,57,0.0,0.0,45,0.00,,,0.00,Wunderground v.1.15,2013-08-23 21:53:00,
2013-08-23 17:03:00,88.5,64.4,30.08,ENE,57,0.0,0.0,45,0.00,,,0.00,Wunderground v.1.15,2013-08-23 22:03:00,
2013-08-23 17:13:00,88.3,64.9,30.08,ENE,57,0.0,0.0,46,0.00,,,0.00,Wunderground v.1.15,2013-08-23 22:13:00,
2013-08-23 17:23:00,88.7,64.6,30.08,ENE,57,0.0,0.0,45,0.00,,,0.00,Wunderground v.1.15,2013-08-23 22:23:00,
2013-08-23 17:33:00,88.5,64.4,30.08,ENE,57,0.0,0.0,45,0.00,,,0.00,Wunderground v.1.15,2013-08-23 22:33:00,
2013-08-23 17:43:00,87.7,63.7,30.08,ENE,57,0.0,0.0,45,0.00,,,0.00,Wunderground v.1.15,2013-08-23 22:43:00,
2013-08-23 17:53:00,86.1,64.7,30.08,ENE,57,0.0,0.0,49,0.00,,,0.00,Wunderground v.1.15,2013-08-23 22:53:00,
2013-08-23 18:03:00,85.0,64.3,30.07,ENE,57,0.0,0.0,50,0.00,,,0.00,Wunderground v.1.15,2013-08-23 23:03:00,
2013-08-23 18:13:00,83.8,64.3,30.08,ENE,57,0.0,0.0,52,0.00,,,0.00,Wunderground v.1.15,2013-08-23 23:13:00,
2013-08-23 18:23:00,83.1,65.3,30.08,ENE,57,0.0,0.0,55,0.00,,,0.00,Wunderground v.1.15,2013-08-23 23:23:00,
2013-08-23 18:33:00,82.3,66.0,30.08,ENE,57,0.0,0.0,58,0.00,,,0.00,Wunderground v.1.15,2013-08-23 23:33:00,
2013-08-23 18:43:00,81.6,66.4,30.08,ENE,57,0.0,0.0,60,0.00,,,0.00,Wunderground v.1.15,2013-08-23 23:43:00,
2013-08-23 18:53:00,80.6,66.8,30.08,ENE,57,0.0,0.0,63,0.00,,,0.00,Wunderground v.1.15,2013-08-23 23:53:00,
2013-08-23 19:03:00,79.4,67.9,30.08,ENE,57,0.0,0.0,68,0.00,,,0.00,Wunderground v.1.15,2013-08-24 00:03:00,
2013-08-23 19:13:00,78.3,68.1,30.08,ENE,57,0.0,0.0,71,0.00,,,0.00,Wunderground v.1.15,2013-08-24 00:13:00,
2013-08-23 19:23:00,77.3,67.6,30.08,ENE,57,0.0,0.0,72,0.00,,,0.00,Wunderground v.1.15,2013-08-24 00:23:00,
2013-08-23 19:33:00,76.4,66.7,30.08,ENE,57,0.0,0.0,72,0.00,,,0.00,Wunderground v.1.15,2013-08-24 00:33:00,
2013-08-23 19:43:00,75.5,66.2,30.09,ENE,57,0.0,0.0,73,0.00,,,0.00,Wunderground v.1.15,2013-08-24 00:43:00,
2013-08-23 19:53:00,74.5,66.1,30.09,ENE,57,0.0,0.0,75,0.00,,,0.00,Wunderground v.1.15,2013-08-24 00:53:00,
2013-08-23 20:03:00,73.8,65.8,30.09,ENE,57,0.0,0.0,76,0.00,,,0.00,Wunderground v.1.15,2013-08-24 01:03:00,
2013-08-23 20:13:00,73.1,65.5,30.09,ENE,57,0.0,0.0,77,0.00,,,0.00,Wunderground v.1.15,2013-08-24 01:13:00,
2013-08-23 20:23:00,72.6,65.7,30.10,ENE,57,0.0,0.0,79,0.00,,,0.00,Wunderground v.1.15,2013-08-24 01:23:00,
2013-08-23 20:33:00,72.1,65.2,30.10,ENE,57,0.0,0.0,79,0.00,,,0.00,Wunderground v.1.15,2013-08-24 01:33:00,
2013-08-23 20:43:00,71.9,65.0,30.11,ENE,57,0.0,0.0,79,0.00,,,0.00,Wunderground v.1.15,2013-08-24 01:43:00,
2013-08-23 20:53:00,71.6,65.1,30.11,ENE,57,0.0,0.0,80,0.00,,,0.00,Wunderground v.1.15,2013-08-24 01:53:00,
2013-08-23 21:03:00,71.3,64.8,30.11,ENE,57,0.0,0.0,80,0.00,,,0.00,Wunderground v.1.15,2013-08-24 02:03:00,
2013-08-23 21:13:00,70.8,64.7,30.12,ENE,57,0.0,0.0,81,0.00,,,0.00,Wunderground v.1.15,2013-08-24 02:13:00,
2013-08-23 21:23:00,70.4,64.6,30.12,ENE,57,0.0,0.0,82,0.00,,,0.00,Wunderground v.1.15,2013-08-24 02:23:00,
2013-08-23 21:33:00,70.1,64.7,30.12,ENE,57,0.0,0.0,83,0.00,,,0.00,Wunderground v.1.15,2013-08-24 02:33:00,
2013-08-23 21:43:00,69.8,64.4,30.13,ENE,57,0.0,0.0,83,0.00,,,0.00,Wunderground v.1.15,2013-08-24 02:43:00,
2013-08-23 21:53:00,69.6,64.2,30.13,ENE,57,0.0,0.0,83,0.00,,,0.00,Wunderground v.1.15,2013-08-24 02:53:00,
2013-08-23 22:03:00,69.3,64.3,30.12,ENE,57,0.0,0.0,84,0.00,,,0.00,Wunderground v.1.15,2013-08-24 03:03:00,
2013-08-23 22:13:00,69.3,64.3,30.13,ENE,57,0.0,0.0,84,0.00,,,0.00,Wunderground v.1.15,2013-08-24 03:13:00,
2013-08-23 22:23:00,68.9,64.2,30.13,ENE,57,0.0,0.0,85,0.00,,,0.00,Wunderground v.1.15,2013-08-24 03:23:00,
2013-08-23 22:33:00,68.8,64.1,30.13,ENE,57,0.0,0.0,85,0.00,,,0.00,Wunderground v.1.15,2013-08-24 03:33:00,
2013-08-23 22:43:00,68.6,63.9,30.13,ENE,57,0.0,0.0,85,0.00,,,0.00,Wunderground v.1.15,2013-08-24 03:43:00,
2013-08-23 22:53:00,68.4,64.0,30.13,ENE,57,0.0,0.0,86,0.00,,,0.00,Wunderground v.1.15,2013-08-24 03:53:00,
2013-08-23 23:03:00,68.3,63.9,30.13,ENE,57,0.0,0.0,86,0.00,,,0.00,Wunderground v.1.15,2013-08-24 04:03:00,
2013-08-23 23:08:00,68.3,63.9,30.13,ENE,57,0.0,0.0,86,0.00,,,0.00,Wunderground v.1.15,2013-08-24 04:08:00,
2013-08-23 23:13:00,68.1,63.8,30.13,ENE,57,0.0,0.0,86,0.00,,,0.00,Wunderground v.1.15,2013-08-24 04:13:00,
2013-08-23 23:23:00,68.0,64.0,30.12,ENE,57,0.0,0.0,87,0.00,,,0.00,Wunderground v.1.15,2013-08-24 04:23:00,
2013-08-23 23:28:00,68.0,64.0,30.13,ENE,57,0.0,0.0,87,0.00,,,0.00,Wunderground v.1.15,2013-08-24 04:28:00,
2013-08-23 23:33:00,67.8,63.8,30.13,ENE,57,0.0,0.0,87,0.00,,,0.00,Wunderground v.1.15,2013-08-24 04:33:00,
2013-08-23 23:43:00,67.6,63.9,30.13,ENE,57,0.0,0.0,88,0.00,,,0.00,Wunderground v.1.15,2013-08-24 04:43:00,
2013-08-23 23:53:00,67.5,63.8,30.13,ENE,57,0.0,0.0,88,0.00,,,0.00,Wunderground v.1.15,2013-08-24 04:53:00,